Weather in Viryatino

Russia / Tambov Oblast     53°10′58″N   41°28′37″E
temp.,
°C
wind,
m/s
gust,
m/s
humid.,
%
clouds,
%
prec.,
mm/h
press.,
hPa
HPBL,
m
7 march, sun
sun700:00−13wnw45930 0.0 101690
03:00−14w47950 0.0 1016111
06:00−14sw459636 0.0 101590
09:00−9sw6138956 0.0 1012456
12:00−5sw91582100 0.0 1009958
15:00−3sw111881100 0.3 10041193
18:00−3sw101893100 0.9 10001189
21:00−2sw101893100 2.1 9971074
8 march, mon
mon800:00−3wnw61484100 1.1 9971024
03:00−7w6148577 1.1 1000421
06:00−9wsw511890 0.0 1001274
09:00−7wsw6118719 0.0 1002483
12:00−3w71183100 0.2 10011307
15:00−3w7118191 0.3 10021153
18:00−7w5128695 0.1 1003372
21:00−11wnw478863 0.1 1007126
9 march, tue
tue900:00−14wnw34950 0.0 100850
03:00−15nw33950 0.0 101029
06:00−16wnw349743 0.0 101239
09:00−14nw359457 0.0 1013196
12:00−11nw369290 0.0 1014350
15:00−10nw468995 0.0 1015555
18:00−13nw3794100 0.0 1016134
21:00−17nw479776 0.0 1018132
10 march, wed
wed1000:00−18nnw349980 0.1 101970
03:00−20nw349976 0.1 102163
06:00−23nw351000 0.0 102289
09:00−22nnw479522 0.0 1024241
12:00−19nw469360 0.0 1026337
15:00−17nw468963 0.0 1026418
18:00−20nw349635 0.0 102646
21:00−22nw339718 0.0 102927
11 march, thu
thu1100:00−23nw23980 0.0 102922
03:00−24wnw22960 0.0 103021
06:00−24w22940 0.0 103121
09:00−19wsw22870 0.0 1031109
12:00−14wsw34763 0.0 1031293
15:00−12sw35792 0.0 1030325
18:00−16ssw34882 0.0 102962
21:00−18ssw35871 0.0 103083